timestamp,wind_dir_avg,wind_spd_avg,wind_spd_max_dir,wind_spd_gust,battery_voltage,lat,long
2021-02-25 00:04:01+00:00,310.0,10.43,313.0,11.95,12.41,47.59359,-54.27349
2021-02-25 00:14:01+00:00,301.0,8.48,301.0,10.88,12.41,47.59359,-54.27349
2021-02-25 00:24:01+00:00,305.0,9.41,300.0,11.2,12.41,47.59359,-54.27349
2021-02-25 00:34:01+00:00,300.0,10.19,303.0,11.71,12.41,47.59359,-54.27349
2021-02-25 00:44:01+00:00,295.0,8.89,293.0,10.77,12.41,47.59359,-54.27349
2021-02-25 00:54:01+00:00,295.0,9.29,299.0,11.03,12.41,47.59359,-54.27349
2021-02-25 01:04:01+00:00,299.0,10.26,290.0,13.08,12.41,47.59359,-54.27349
2021-02-25 01:14:01+00:00,304.0,11.09,301.0,12.56,12.41,47.59359,-54.27349
2021-02-25 01:24:01+00:00,304.0,10.64,309.0,13.67,12.41,47.59359,-54.27349
2021-02-25 01:34:01+00:00,300.0,9.44,306.0,12.14,12.41,47.59359,-54.27349
2021-02-25 01:44:01+00:00,289.0,8.62,283.0,10.05,12.41,47.59359,-54.27349
2021-02-25 01:54:01+00:00,291.0,9.8,291.0,11.69,12.41,47.59359,-54.27349
2021-02-25 02:04:01+00:00,294.0,11.8,295.0,13.09,12.41,47.59359,-54.27349
2021-02-25 02:14:01+00:00,296.0,10.25,301.0,12.18,12.41,47.59359,-54.27349
2021-02-25 02:24:01+00:00,296.0,10.28,294.0,12.14,12.41,47.59359,-54.27349
2021-02-25 02:34:01+00:00,286.0,11.8,286.0,13.28,12.41,47.59359,-54.27349
2021-02-25 02:44:01+00:00,294.0,11.75,296.0,13.44,12.41,47.59359,-54.27349
2021-02-25 02:54:01+00:00,295.0,12.07,291.0,13.79,12.41,47.59359,-54.27349
2021-02-25 03:04:01+00:00,289.0,11.6,286.0,13.19,12.41,47.59359,-54.27349
2021-02-25 03:14:01+00:00,298.0,12.52,297.0,14.2,12.33,47.59359,-54.27349
2021-02-25 03:24:01+00:00,291.0,8.04,292.0,9.19,12.33,47.59359,-54.27349
2021-02-25 03:34:01+00:00,295.0,8.95,281.0,11.08,12.33,47.59359,-54.27349
2021-02-25 03:44:01+00:00,291.0,10.41,294.0,12.28,12.33,47.59359,-54.27349
2021-02-25 03:54:01+00:00,290.0,8.6,286.0,10.33,12.33,47.59359,-54.27349
2021-02-25 04:04:01+00:00,282.0,10.12,284.0,11.69,12.33,47.59359,-54.27349
2021-02-25 04:14:01+00:00,298.0,10.39,299.0,11.96,12.33,47.59359,-54.27349
2021-02-25 04:24:01+00:00,279.0,7.51,274.0,9.99,12.33,47.59359,-54.27349
2021-02-25 04:34:01+00:00,292.0,8.12,294.0,9.8,12.33,47.59359,-54.27349
2021-02-25 04:44:01+00:00,279.0,9.53,286.0,12.18,12.33,47.59359,-54.27349
2021-02-25 04:54:01+00:00,285.0,7.47,290.0,9.62,12.33,47.59359,-54.27349
2021-02-25 05:04:01+00:00,292.0,8.88,292.0,10.79,12.33,47.59359,-54.27349
2021-02-25 05:14:01+00:00,293.0,7.29,291.0,8.13,12.25,47.59359,-54.27349
2021-02-25 05:24:01+00:00,299.0,5.54,306.0,6.27,12.25,47.59359,-54.27349
2021-02-25 05:34:01+00:00,292.0,6.17,296.0,7.46,12.25,47.59359,-54.27349
2021-02-25 05:44:01+00:00,284.0,4.5,278.0,5.38,12.25,47.59359,-54.27349
2021-02-25 05:54:01+00:00,287.0,5.76,287.0,6.53,12.25,47.59359,-54.27349
2021-02-25 06:04:01+00:00,274.0,5.56,285.0,6.74,12.25,47.59359,-54.27349
2021-02-25 06:14:01+00:00,267.0,8.05,265.0,9.56,12.17,47.59359,-54.27349
2021-02-25 06:24:01+00:00,265.0,8.91,271.0,10.88,12.17,47.59359,-54.27349
2021-02-25 06:34:01+00:00,264.0,9.64,269.0,11.76,12.17,47.59359,-54.27349
2021-02-25 06:44:01+00:00,268.0,9.96,261.0,11.53,12.17,47.59359,-54.27349
2021-02-25 06:54:01+00:00,272.0,9.59,271.0,11.02,12.17,47.59359,-54.27349
2021-02-25 07:04:01+00:00,270.0,10.16,271.0,13.28,12.17,47.59359,-54.27349
2021-02-25 07:14:01+00:00,272.0,9.52,273.0,11.97,12.33,47.59359,-54.27349
2021-02-25 07:24:01+00:00,269.0,9.64,270.0,11.16,12.33,47.59359,-54.27349
2021-02-25 07:34:01+00:00,266.0,8.58,268.0,10.54,12.33,47.59359,-54.27349
2021-02-25 07:44:01+00:00,261.0,9.93,255.0,11.62,12.33,47.59359,-54.27349
2021-02-25 07:54:01+00:00,258.0,9.23,256.0,10.42,12.33,47.59359,-54.27349
2021-02-25 08:04:01+00:00,261.0,8.08,262.0,9.9,12.33,47.59359,-54.27349
2021-02-25 08:14:01+00:00,255.0,7.7,253.0,8.74,12.17,47.59359,-54.27349
2021-02-25 08:24:01+00:00,255.0,7.61,252.0,9.99,12.17,47.59359,-54.27349
2021-02-25 08:34:01+00:00,240.0,8.82,241.0,9.83,12.17,47.59359,-54.27349
2021-02-25 08:44:01+00:00,234.0,7.9,233.0,9.05,12.17,47.59359,-54.27349
2021-02-25 08:54:01+00:00,236.0,8.2,235.0,8.89,12.17,47.59359,-54.27349
2021-02-25 09:04:01+00:00,226.0,6.29,229.0,7.32,12.17,47.59359,-54.27349
2021-02-25 09:14:01+00:00,228.0,6.83,233.0,9.09,12.17,47.59359,-54.27349
2021-02-25 09:24:01+00:00,233.0,8.21,232.0,9.03,12.17,47.59359,-54.27349
2021-02-25 09:34:01+00:00,244.0,7.32,244.0,9.02,12.17,47.59359,-54.27349
2021-02-25 09:44:01+00:00,237.0,7.84,234.0,8.92,12.17,47.59359,-54.27349
2021-02-25 09:54:01+00:00,237.0,7.91,242.0,9.07,12.17,47.59359,-54.27349
2021-02-25 10:04:01+00:00,231.0,7.68,226.0,9.68,12.17,47.59359,-54.27349
2021-02-25 10:14:01+00:00,232.0,8.42,230.0,9.36,12.17,47.59359,-54.27349
2021-02-25 10:24:01+00:00,241.0,7.28,248.0,8.47,12.17,47.59359,-54.27349
2021-02-25 10:34:01+00:00,234.0,7.05,236.0,8.08,12.17,47.59359,-54.27349
2021-02-25 10:44:01+00:00,242.0,7.56,246.0,9.46,12.17,47.59359,-54.27349
2021-02-25 10:54:01+00:00,238.0,7.09,238.0,8.05,12.17,47.59359,-54.27349
2021-02-25 11:04:01+00:00,243.0,7.26,246.0,8.0,12.17,47.59359,-54.27349
2021-02-25 11:14:01+00:00,241.0,7.64,244.0,9.13,12.33,47.59359,-54.27349
2021-02-25 11:24:01+00:00,239.0,7.51,238.0,8.71,12.33,47.59359,-54.27349
2021-02-25 11:34:01+00:00,233.0,8.13,231.0,9.47,12.33,47.59359,-54.27349
2021-02-25 11:44:01+00:00,227.0,7.45,231.0,9.19,12.33,47.59359,-54.27349
2021-02-25 11:54:01+00:00,229.0,7.49,232.0,8.58,12.33,47.59359,-54.27349
2021-02-25 12:04:01+00:00,224.0,7.86,233.0,9.71,12.33,47.59359,-54.27349
2021-02-25 12:14:01+00:00,229.0,8.86,233.0,10.72,13.44,47.59359,-54.27349
2021-02-25 12:24:01+00:00,232.0,9.17,234.0,10.52,13.44,47.59359,-54.27349
2021-02-25 12:34:01+00:00,223.0,7.72,230.0,9.6,13.44,47.59359,-54.27349
2021-02-25 12:44:01+00:00,224.0,7.76,223.0,9.1,13.44,47.59359,-54.27349
2021-02-25 12:54:01+00:00,224.0,7.82,228.0,9.38,13.44,47.59359,-54.27349
2021-02-25 13:04:01+00:00,217.0,7.86,216.0,9.36,13.44,47.59359,-54.27349
2021-02-25 13:14:01+00:00,221.0,8.44,222.0,10.11,13.68,47.59359,-54.27349
2021-02-25 13:24:01+00:00,226.0,7.72,233.0,9.0,13.68,47.59359,-54.27349
2021-02-25 13:34:01+00:00,219.0,8.13,218.0,9.5,13.68,47.59359,-54.27349
2021-02-25 13:44:01+00:00,224.0,8.91,226.0,10.05,13.68,47.59359,-54.27349
2021-02-25 13:54:01+00:00,220.0,7.21,217.0,8.47,13.68,47.59359,-54.27349
2021-02-25 14:04:01+00:00,217.0,7.62,222.0,8.83,13.68,47.59359,-54.27349
2021-02-25 14:14:01+00:00,225.0,8.93,217.0,10.32,13.84,47.59359,-54.27349
2021-02-25 14:24:01+00:00,230.0,9.43,232.0,11.32,13.84,47.59359,-54.27349
2021-02-25 14:34:01+00:00,226.0,8.55,226.0,9.8,13.84,47.59359,-54.27349
2021-02-25 14:44:01+00:00,231.0,10.81,239.0,12.79,13.84,47.59359,-54.27349
2021-02-25 14:54:01+00:00,226.0,9.74,228.0,12.25,13.84,47.59359,-54.27349
2021-02-25 15:04:01+00:00,219.0,9.16,220.0,13.42,13.84,47.59359,-54.27349
2021-02-25 15:14:01+00:00,216.0,9.04,224.0,10.25,13.53,47.59359,-54.27349
2021-02-25 15:24:01+00:00,212.0,9.1,213.0,10.93,13.53,47.59359,-54.27349
2021-02-25 15:34:01+00:00,211.0,8.63,207.0,10.25,13.53,47.59359,-54.27349
2021-02-25 15:44:01+00:00,210.0,9.2,210.0,11.0,13.53,47.59359,-54.27349
2021-02-25 15:54:01+00:00,209.0,8.26,208.0,9.73,13.53,47.59359,-54.27349
2021-02-25 16:04:01+00:00,211.0,8.27,204.0,9.35,13.53,47.59359,-54.27349
2021-02-25 16:14:01+00:00,203.0,8.95,201.0,11.04,13.84,47.59359,-54.27349
2021-02-25 16:24:01+00:00,201.0,8.67,202.0,9.88,13.84,47.59359,-54.27349
2021-02-25 16:34:01+00:00,193.0,7.22,195.0,7.79,13.84,47.59359,-54.27349
2021-02-25 16:44:01+00:00,191.0,7.63,192.0,8.58,13.84,47.59359,-54.27349
2021-02-25 16:54:01+00:00,194.0,8.05,197.0,8.85,13.84,47.59359,-54.27349
2021-02-25 17:04:01+00:00,189.0,7.04,187.0,8.26,13.84,47.59359,-54.27349
2021-02-25 17:14:01+00:00,184.0,5.96,185.0,16.91,13.37,47.59359,-54.27349
2021-02-25 17:24:01+00:00,177.0,8.39,178.0,12.15,13.37,47.59359,-54.27349
2021-02-25 17:34:01+00:00,176.0,8.47,173.0,9.95,13.37,47.59359,-54.27349
2021-02-25 17:44:01+00:00,169.0,9.42,169.0,10.96,13.37,47.59359,-54.27349
2021-02-25 17:54:01+00:00,168.0,10.09,173.0,11.83,13.37,47.59359,-54.27349
2021-02-25 18:04:01+00:00,315.0,0.01,0.0,0.0,13.37,47.59359,-54.27349
2021-02-25 18:14:01+00:00,184.0,8.13,188.0,11.49,12.65,47.59359,-54.27349
2021-02-25 18:24:01+00:00,315.0,0.01,0.0,0.0,12.65,47.59359,-54.27349
2021-02-25 18:34:01+00:00,315.0,0.01,0.0,0.0,12.65,47.59359,-54.27349
2021-02-25 18:44:01+00:00,315.0,0.01,0.0,0.0,12.65,47.59359,-54.27349
2021-02-25 18:54:01+00:00,143.0,7.71,147.0,8.77,12.65,47.59359,-54.27349
2021-02-25 19:04:01+00:00,147.0,5.89,148.0,8.53,12.65,47.59359,-54.27349
2021-02-25 19:14:01+00:00,144.0,6.08,149.0,7.56,12.41,47.59359,-54.27349
2021-02-25 19:24:01+00:00,143.0,6.3,147.0,7.65,12.41,47.59359,-54.27349
2021-02-25 19:34:01+00:00,144.0,8.23,145.0,9.46,12.41,47.59359,-54.27349
2021-02-25 19:44:01+00:00,144.0,8.79,147.0,10.47,12.41,47.59359,-54.27349
2021-02-25 19:54:01+00:00,145.0,5.65,151.0,7.67,12.41,47.59359,-54.27349
2021-02-25 20:04:01+00:00,155.0,11.96,157.0,14.96,12.41,47.59359,-54.27349
2021-02-25 20:14:01+00:00,150.0,14.1,152.0,16.64,12.41,47.59359,-54.27349
2021-02-25 20:24:01+00:00,179.0,10.73,181.0,12.34,12.41,47.59359,-54.27349
2021-02-25 20:34:01+00:00,199.0,13.98,198.0,16.32,12.41,47.59359,-54.27349
2021-02-25 20:44:01+00:00,199.0,14.73,201.0,18.17,12.41,47.59359,-54.27349
2021-02-25 20:54:01+00:00,211.0,15.63,214.0,18.96,12.41,47.59359,-54.27349
2021-02-25 21:04:01+00:00,214.0,14.07,217.0,16.99,12.41,47.59359,-54.27349
2021-02-25 21:14:01+00:00,217.0,13.7,225.0,16.57,12.33,47.59359,-54.27349
2021-02-25 21:24:01+00:00,217.0,12.01,216.0,13.38,12.33,47.59359,-54.27349
2021-02-25 21:34:01+00:00,221.0,12.04,228.0,14.06,12.33,47.59359,-54.27349
2021-02-25 21:44:01+00:00,223.0,11.65,226.0,14.28,12.33,47.59359,-54.27349
2021-02-25 21:54:01+00:00,225.0,12.64,225.0,15.12,12.33,47.59359,-54.27349
2021-02-25 22:04:01+00:00,228.0,12.12,230.0,14.28,12.33,47.59359,-54.27349
2021-02-25 22:14:01+00:00,229.0,11.66,233.0,14.06,12.41,47.59359,-54.27349
2021-02-25 22:24:01+00:00,229.0,12.72,229.0,15.15,12.41,47.59359,-54.27349
2021-02-25 22:34:01+00:00,232.0,10.58,226.0,12.6,12.41,47.59359,-54.27349
2021-02-25 22:44:01+00:00,231.0,11.09,235.0,13.6,12.41,47.59359,-54.27349
2021-02-25 22:54:01+00:00,230.0,11.14,233.0,12.73,12.41,47.59359,-54.27349
2021-02-25 23:04:01+00:00,242.0,10.6,241.0,12.01,12.41,47.59359,-54.27349
2021-02-25 23:14:01+00:00,248.0,13.77,254.0,17.19,12.33,47.59359,-54.27349
2021-02-25 23:24:01+00:00,245.0,12.89,244.0,16.25,12.33,47.59359,-54.27349
2021-02-25 23:34:01+00:00,247.0,12.82,249.0,14.41,12.33,47.59359,-54.27349
2021-02-25 23:44:01+00:00,250.0,12.19,249.0,14.19,12.33,47.59359,-54.27349
2021-02-25 23:54:01+00:00,244.0,11.6,242.0,13.82,12.33,47.59359,-54.27349
